Location: Boiro
(42.6475°N, 8.8834°W)
Time: 18:55:31
(UTC+01:00)

Transit 2A - Pass Details

Date: 30 November 2021
Orbit: 591 x 967 km, 66.7° (Epoch: 20 January)

Event Time Altitude Azimuth Distance (km) Brightness Sun altitude
Rises 10:36:08 0° 332° (NNW) 3,655 8.9 14.9°
Reaches altitude 10° 10:38:50 10° 338° (NNW) 2,713 8.3 15.2°
Maximum altitude 10:44:59 46° 51° (NE) 1,260 7.3 15.9°
Drops below altitude 10° 10:50:55 10° 124° (SE) 2,618 10.5 16.6°
Sets 10:53:28 0° 131° (SE) 3,516 11.0 16.9°
